• In Russia
  • List of Countries
  • For 7 days
  • Water Temperature
  • Weather Map
  • Weather Widgets
  • user-avatar
    Login

    Hourly Weather Lezhe

    Today, 22 January, Wednesday

    Time Temperature Precipitation Wind Pressure Humidity
    00:00 +3°C° 0 mm 2 mps 751 mmHg 53%
    01:00 +3°C° 0 mm 2 mps 751 mmHg 52%
    02:00 +3°C° 0 mm 2 mps 750 mmHg 51%
    03:00 +3°C° 0 mm 2 mps 750 mmHg 50%
    04:00 +4°C° 0 mm 1 mps 750 mmHg 48%
    05:00 +4°C° 0 mm 1 mps 749 mmHg 47%
    06:00 +4°C° 0 mm 1 mps 749 mmHg 45%
    07:00 +4°C° 0 mm 1 mps 749 mmHg 44%
    08:00 +5°C° 0 mm 1 mps 749 mmHg 41%
    09:00 +7°C° 0 mm 1 mps 749 mmHg 39%
    10:00 +8°C° 0 mm 0 mps 749 mmHg 36%
    11:00 +9°C° 0 mm 0 mps 748 mmHg 37%
    12:00 +9°C° 0 mm 0 mps 748 mmHg 38%
    13:00 +10°C° 0 mm 1 mps 747 mmHg 39%
    14:00 +8°C° 0 mm 0 mps 747 mmHg 45%
    15:00 +7°C° 0 mm 0 mps 746 mmHg 51%
    16:00 +6°C° 0 mm 0 mps 746 mmHg 56%
    17:00 +6°C° 0 mm 0 mps 746 mmHg 57%
    18:00 +5°C° 0 mm 0 mps 746 mmHg 57%
    19:00 +5°C° 0 mm 1 mps 745 mmHg 58%
    20:00 +5°C° 0 mm 1 mps 745 mmHg 58%
    21:00 +5°C° 0 mm 1 mps 745 mmHg 58%
    22:00 +4°C° 0 mm 1 mps 745 mmHg 58%
    23:00 +4°C° 0 mm 1 mps 745 mmHg 58%

    Tomorrow, 23 January, Thursday

    Time Temperature Precipitation Wind Pressure Humidity
    00:00 +4°C° 0 mm 1 mps 745 mmHg 57%
    01:00 +4°C° 0 mm 1 mps 746 mmHg 56%
    02:00 +4°C° 0 mm 1 mps 745 mmHg 54%
    03:00 +3°C° 0 mm 2 mps 745 mmHg 52%
    04:00 +3°C° 0 mm 2 mps 745 mmHg 50%
    05:00 +3°C° 0 mm 2 mps 745 mmHg 49%
    06:00 +3°C° 0 mm 2 mps 745 mmHg 48%
    07:00 +3°C° 0 mm 2 mps 746 mmHg 46%
    08:00 +3°C° 0 mm 3 mps 746 mmHg 45%
    09:00 +5°C° 0 mm 3 mps 746 mmHg 43%
    10:00 +8°C° 0 mm 3 mps 746 mmHg 42%
    11:00 +8°C° 0 mm 4 mps 746 mmHg 42%
    12:00 +10°C° 0 mm 4 mps 746 mmHg 42%
    13:00 +10°C° 0 mm 4 mps 746 mmHg 43%
    14:00 +10°C° 0 mm 4 mps 746 mmHg 47%
    15:00 +8°C° 0 mm 4 mps 746 mmHg 51%
    16:00 +7°C° 0 mm 4 mps 746 mmHg 55%
    17:00 +5°C° 0 mm 4 mps 746 mmHg 58%
    18:00 +4°C° 0 mm 4 mps 746 mmHg 61%
    19:00 +3°C° 0 mm 4 mps 746 mmHg 64%
    20:00 +3°C° 0 mm 4 mps 746 mmHg 64%
    21:00 +2°C° 0 mm 3 mps 747 mmHg 63%
    22:00 +2°C° 0 mm 3 mps 747 mmHg 63%
    23:00 +2°C° 0 mm 3 mps 747 mmHg 62%

    Day after tomorrow, 24 January, Friday

    Time Temperature Precipitation Wind Pressure Humidity
    00:00 +2°C° 0 mm 3 mps 747 mmHg 60%
    01:00 +2°C° 0 mm 3 mps 747 mmHg 59%
    02:00 +2°C° 0 mm 3 mps 747 mmHg 57%
    03:00 +3°C° 0 mm 2 mps 747 mmHg 55%
    04:00 +3°C° 0 mm 2 mps 747 mmHg 53%
    05:00 +3°C° 0 mm 2 mps 747 mmHg 50%
    06:00 +3°C° 0 mm 2 mps 747 mmHg 47%
    07:00 +3°C° 0 mm 2 mps 747 mmHg 44%
    08:00 +5°C° 0 mm 2 mps 748 mmHg 46%
    09:00 +8°C° 0 mm 1 mps 748 mmHg 48%
    10:00 +10°C° 0 mm 1 mps 748 mmHg 51%
    11:00 +11°C° 0 mm 1 mps 748 mmHg 53%
    12:00 +11°C° 0 mm 1 mps 747 mmHg 56%
    13:00 +12°C° 0 mm 1 mps 747 mmHg 58%
    14:00 +12°C° 0 mm 1 mps 747 mmHg 63%
    15:00 +11°C° 0 mm 1 mps 746 mmHg 68%
    16:00 +10°C° 0 mm 1 mps 746 mmHg 72%
    17:00 +9°C° 0 mm 1 mps 746 mmHg 76%
    18:00 +8°C° 0 mm 1 mps 747 mmHg 79%
    19:00 +7°C° 0 mm 1 mps 747 mmHg 82%
    20:00 +7°C° 0 mm 1 mps 747 mmHg 82%
    21:00 +7°C° 0 mm 1 mps 747 mmHg 82%
    22:00 +6°C° 0 mm 2 mps 747 mmHg 82%
    23:00 +7°C° 0 mm 1 mps 746 mmHg 82%

    25 January, Saturday

    Time Temperature Precipitation Wind Pressure Humidity
    00:00 +7°C° 0 mm 1 mps 746 mmHg 81%
    01:00 +7°C° 0 mm 1 mps 746 mmHg 81%
    02:00 +8°C° 0 mm 1 mps 746 mmHg 80%
    03:00 +7°C° 0 mm 2 mps 746 mmHg 80%
    04:00 +7°C° 0 mm 2 mps 745 mmHg 79%
    05:00 +7°C° 0 mm 2 mps 745 mmHg 80%
    06:00 +7°C° 0 mm 2 mps 745 mmHg 81%
    07:00 +7°C° 0 mm 2 mps 745 mmHg 81%
    08:00 +9°C° 0 mm 1 mps 745 mmHg 80%
    09:00 +9°C° 0 mm 1 mps 745 mmHg 78%
    10:00 +10°C° 0 mm 1 mps 745 mmHg 77%
    11:00 +10°C° 0 mm 1 mps 745 mmHg 77%
    12:00 +10°C° 0 mm 1 mps 745 mmHg 78%
    13:00 +11°C° 0 mm 1 mps 744 mmHg 78%
    14:00 +10°C° 0.1 mm 1 mps 744 mmHg 80%
    15:00 +10°C° 0.1 mm 1 mps 744 mmHg 82%
    16:00 +9°C° 0.1 mm 2 mps 744 mmHg 84%
    17:00 +9°C° 0.2 mm 2 mps 744 mmHg 85%
    18:00 +9°C° 0.2 mm 2 mps 744 mmHg 85%
    19:00 +9°C° 0.2 mm 2 mps 744 mmHg 85%
    20:00 +9°C° 0.2 mm 2 mps 744 mmHg 86%
    21:00 +10°C° 0.2 mm 1 mps 744 mmHg 86%
    22:00 +9°C° 0.2 mm 1 mps 744 mmHg 86%
    23:00 +9°C° 0.1 mm 1 mps 744 mmHg 86%

    26 January, Sunday

    Time Temperature Precipitation Wind Pressure Humidity
    00:00 +9°C° 0.1 mm 1 mps 744 mmHg 86%
    01:00 +9°C° 0.1 mm 1 mps 743 mmHg 85%
    02:00 +9°C° 0 mm 1 mps 743 mmHg 84%
    03:00 +9°C° 0 mm 1 mps 743 mmHg 84%
    04:00 +9°C° 0 mm 1 mps 743 mmHg 83%
    05:00 +9°C° 0 mm 1 mps 743 mmHg 81%
    06:00 +9°C° 0 mm 1 mps 743 mmHg 80%
    07:00 +9°C° 0 mm 1 mps 743 mmHg 79%
    08:00 +10°C° 0 mm 1 mps 743 mmHg 77%
    09:00 +10°C° 0 mm 1 mps 743 mmHg 74%
    10:00 +11°C° 0 mm 1 mps 743 mmHg 72%
    11:00 +11°C° 0.1 mm 1 mps 742 mmHg 73%
    12:00 +12°C° 0.1 mm 1 mps 742 mmHg 74%
    13:00 +12°C° 0.1 mm 1 mps 741 mmHg 74%
    14:00 +11°C° 0.5 mm 1 mps 741 mmHg 79%
    15:00 +11°C° 0.5 mm 1 mps 741 mmHg 83%
    16:00 +10°C° 0.5 mm 1 mps 741 mmHg 87%
    17:00 +10°C° 0.8 mm 1 mps 741 mmHg 89%
    18:00 +10°C° 0.8 mm 1 mps 741 mmHg 90%
    19:00 +10°C° 0.8 mm 1 mps 742 mmHg 91%
    20:00 +10°C° 0.5 mm 1 mps 742 mmHg 91%
    21:00 +10°C° 0.5 mm 1 mps 742 mmHg 91%
    22:00 +10°C° 0.5 mm 1 mps 742 mmHg 91%
    23:00 +10°C° 0 mm 1 mps 742 mmHg 90%

    27 January, Monday

    Time Temperature Precipitation Wind Pressure Humidity
    00:00 +10°C° 0 mm 1 mps 742 mmHg 89%
    01:00 +9°C° 0 mm 1 mps 742 mmHg 89%
    02:00 +9°C° 0 mm 1 mps 742 mmHg 88%
    03:00 +9°C° 0 mm 1 mps 742 mmHg 87%
    04:00 +9°C° 0 mm 1 mps 742 mmHg 87%
    05:00 +9°C° 0 mm 1 mps 743 mmHg 87%
    06:00 +9°C° 0 mm 1 mps 743 mmHg 86%
    07:00 +9°C° 0 mm 1 mps 743 mmHg 86%
    08:00 +10°C° 0 mm 1 mps 743 mmHg 82%
    09:00 +11°C° 0 mm 1 mps 744 mmHg 77%
    10:00 +12°C° 0 mm 1 mps 744 mmHg 73%
    11:00 +13°C° 0 mm 1 mps 744 mmHg 69%
    12:00 +14°C° 0 mm 1 mps 744 mmHg 66%
    13:00 +14°C° 0 mm 2 mps 744 mmHg 62%
    14:00 +14°C° 0 mm 2 mps 744 mmHg 65%
    15:00 +13°C° 0 mm 2 mps 743 mmHg 67%
    16:00 +13°C° 0 mm 2 mps 743 mmHg 70%
    17:00 +12°C° 0 mm 2 mps 744 mmHg 72%
    18:00 +10°C° 0 mm 2 mps 744 mmHg 75%
    19:00 +8°C° 0 mm 2 mps 744 mmHg 78%
    20:00 +8°C° 0 mm 2 mps 744 mmHg 78%
    21:00 +8°C° 0 mm 2 mps 745 mmHg 77%
    22:00 +8°C° 0 mm 2 mps 745 mmHg 77%
    23:00 +7°C° 0 mm 2 mps 745 mmHg 77%
    Show more